| time (UTC) | temp F | wind direction | speed MPH | gust MPH | rain 1hr in | rain 24hr in | rain mn in | humidity % | barometer mb |
| 20260901044207 | 75 | 0 | 2.0 | 2.0 | 0.00 | 0.00 | 0.00 | 90 | 1038.2 |
| 20260901043702 | 75 | 354 | 1.0 | 2.0 | 0.00 | 0.00 | 0.00 | 90 | 1038.6 |
| 20260901043157 | 76 | 0 | 0.0 | 1.0 | 0.00 | 0.00 | 0.00 | 90 | 1038.4 |
| 20260901042656 | 76 | 15 | 0.0 | 1.0 | 0.00 | 0.00 | 0.00 | 87 | 1038.6 |
| 20260901042151 | 76 | 172 | 0.0 | 0.0 | 0.00 | 0.00 | 0.00 | 87 | 1038.7 |
| 20260901041648 | 76 | 172 | 0.0 | 0.0 | 0.00 | 0.00 | 0.00 | 89 | 1038.6 |
| 20260901041147 | 76 | 172 | 0.0 | 0.0 | 0.00 | 0.00 | 0.00 | 90 | 1038.6 |
| 20260901040642 | 76 | 172 | 0.0 | 0.0 | 0.00 | 0.00 | 0.00 | 89 | 1038.4 |
| 20260901040135 | 77 | 172 | 0.0 | 0.0 | 0.00 | 0.00 | 0.00 | 88 | 1038.4 |
| 20260901035634 | 77 | 172 | 0.0 | 1.0 | 0.00 | 0.00 | 0.00 | 86 | 1038.1 |
| 20260901035132 | 77 | 180 | 0.0 | 0.0 | 0.00 | 0.00 | 0.00 | 85 | 1038.6 |
| 20260901034627 | 77 | 180 | 0.0 | 1.0 | 0.00 | 0.00 | 0.00 | 84 | 1038.6 |
| 20260901034121 | 79 | 0 | 0.0 | 0.0 | 0.00 | 0.00 | 0.00 | 81 | 1038.2 |
| 20260901033620 | 78 | 0 | 0.0 | 0.0 | 0.00 | 0.00 | 0.00 | 80 | 1038.2 |
| 20260901033115 | 78 | 0 | 0.0 | 2.0 | 0.00 | 0.00 | 0.00 | 81 | 1038.5 |
| 20260901032613 | 78 | 344 | 2.0 | 2.0 | 0.00 | 0.00 | 0.00 | 82 | 1038.6 |
| 20260901032108 | 78 | 352 | 0.0 | 2.0 | 0.00 | 0.00 | 0.00 | 81 | 1038.2 |
| 20260901031604 | 79 | 0 | 0.0 | 0.0 | 0.00 | 0.00 | 0.00 | 80 | 1038.6 |
| 20260901031059 | 79 | 0 | 0.0 | 0.0 | 0.00 | 0.00 | 0.00 | 79 | 1038.1 |
| 20260901030554 | 79 | 345 | 0.0 | 0.0 | 0.00 | 0.00 | 0.00 | 79 | 1038.2 |
| 20260901030049 | 79 | 345 | 0.0 | 1.0 | 0.00 | 0.00 | 0.00 | 79 | 1038.6 |
| 20260901025549 | 79 | 345 | 0.0 | 1.0 | 0.00 | 0.00 | 0.00 | 79 | 1038.4 |
| 20260901025049 | 79 | 0 | 0.0 | 0.0 | 0.00 | 0.00 | 0.00 | 79 | 1038.5 |
| 20260901024543 | 79 | 0 | 0.0 | 1.0 | 0.00 | 0.00 | 0.00 | 80 | 1038.5 |
| 20260901024042 | 79 | 352 | 0.0 | 0.0 | 0.00 | 0.00 | 0.00 | 80 | 1038.5 |
| 20260901023541 | 79 | 0 | 0.0 | 1.0 | 0.00 | 0.00 | 0.00 | 80 | 1038.2 |
| 20260901023036 | 80 | 352 | 0.0 | 1.0 | 0.00 | 0.00 | 0.00 | 79 | 1038.1 |
| 20260901022531 | 80 | 352 | 1.0 | 1.0 | 0.00 | 0.00 | 0.00 | 78 | 1038.4 |
| 20260901022027 | 80 | 355 | 2.0 | 2.0 | 0.00 | 0.00 | 0.00 | 77 | 1038.2 |
| 20260901021522 | 80 | 0 | 0.0 | 1.0 | 0.00 | 0.00 | 0.00 | 77 | 1038.5 |
| 20260901021018 | 80 | 348 | 1.0 | 2.0 | 0.00 | 0.00 | 0.00 | 78 | 1038.5 |
| 20260901020513 | 80 | 352 | 0.0 | 1.0 | 0.00 | 0.00 | 0.00 | 78 | 1038.2 |
| 20260901020008 | 80 | 340 | 0.0 | 1.0 | 0.00 | 0.00 | 0.00 | 78 | 1038.2 |
| 20260901015504 | 80 | 348 | 1.0 | 2.0 | 0.00 | 0.00 | 0.00 | 78 | 1038.2 |
| 20260901015003 | 81 | 0 | 0.0 | 1.0 | 0.00 | 0.00 | 0.00 | 78 | 1038.0 |
| 20260901014459 | 81 | 348 | 1.0 | 2.0 | 0.00 | 0.00 | 0.00 | 77 | 1038.2 |
| 20260901013954 | 81 | 352 | 0.0 | 1.0 | 0.00 | 0.00 | 0.00 | 75 | 1038.0 |
| 20260901013450 | 81 | 340 | 1.0 | 1.0 | 0.00 | 0.00 | 0.00 | 74 | 1038.1 |
| 20260901012946 | 81 | 340 | 1.0 | 2.0 | 0.00 | 0.00 | 0.00 | 74 | 1037.9 |
| 20260901012445 | 81 | 352 | 0.0 | 2.0 | 0.00 | 0.00 | 0.00 | 75 | 1037.9 |
| 20260901011941 | 81 | 340 | 1.0 | 2.0 | 0.00 | 0.00 | 0.00 | 74 | 1037.9 |
| 20260901011437 | 81 | 346 | 1.0 | 2.0 | 0.00 | 0.00 | 0.00 | 74 | 1037.8 |
| 20260901010935 | 81 | 348 | 1.0 | 2.0 | 0.00 | 0.00 | 0.00 | 73 | 1037.7 |
| 20260901010430 | 82 | 337 | 1.0 | 2.0 | 0.00 | 0.00 | 0.00 | 71 | 1037.7 |
| 20260901005929 | 82 | 339 | 2.0 | 2.0 | 0.00 | 0.00 | 0.00 | 70 | 1037.7 |
| 20260901005424 | 82 | 331 | 1.0 | 2.0 | 0.00 | 0.00 | 0.00 | 72 | 1037.8 |
| 20260901004919 | 82 | 328 | 2.0 | 2.0 | 0.00 | 0.00 | 0.00 | 72 | 1037.9 |
| 20260901004418 | 82 | 331 | 0.0 | 2.0 | 0.00 | 0.00 | 0.00 | 72 | 1037.9 |
| 20260901003913 | 82 | 344 | 2.0 | 2.0 | 0.00 | 0.00 | 0.00 | 71 | 1037.5 |
| 20260901003408 | 82 | 331 | 0.0 | 2.0 | 0.00 | 0.00 | 0.00 | 71 | 1037.7 |
| 20260901002906 | 81 | 337 | 1.0 | 2.0 | 0.00 | 0.00 | 0.00 | 74 | 1037.7 |
| 20260901002401 | 81 | 344 | 2.0 | 2.0 | 0.00 | 0.00 | 0.00 | 77 | 1037.9 |
| 20260901001855 | 81 | 342 | 1.0 | 2.0 | 0.00 | 0.00 | 0.00 | 80 | 1037.8 |
| 20260901001351 | 81 | 349 | 2.0 | 2.0 | 0.00 | 0.00 | 0.00 | 80 | 1037.6 |
| 20260901000846 | 82 | 357 | 3.0 | 3.0 | 0.00 | 0.00 | 0.00 | 78 | 1037.7 |
| 20260901000343 | 82 | 355 | 2.0 | 2.0 | 0.00 | 0.00 | 0.00 | 77 | 1037.5 |
| 20260831235839 | 83 | 354 | 1.0 | 2.0 | 0.00 | 0.00 | 0.00 | 78 | 1037.7 |
| 20260831235336 | 83 | 0 | 1.0 | 2.0 | 0.00 | 0.00 | 0.00 | 75 | 1037.6 |
| 20260831234830 | 85 | 0 | 1.0 | 2.0 | 0.00 | 0.00 | 0.00 | 72 | 1037.4 |
| 20260831234325 | 86 | 180 | 0.0 | 0.0 | 0.00 | 0.00 | 0.00 | 67 | 1037.5 |
| 20260831233820 | 86 | 180 | 0.0 | 0.0 | 0.00 | 0.00 | 0.00 | 66 | 1037.7 |
| 20260831233316 | 86 | 180 | 0.0 | 0.0 | 0.00 | 0.00 | 0.00 | 66 | 1037.6 |
| 20260831232811 | 87 | 180 | 0.0 | 0.0 | 0.00 | 0.00 | 0.00 | 66 | 1037.7 |
| 20260831232307 | 87 | 180 | 0.0 | 0.0 | 0.00 | 0.00 | 0.00 | 61 | 1037.7 |
| 20260831231803 | 88 | 180 | 0.0 | 0.0 | 0.00 | 0.00 | 0.00 | 60 | 1037.7 |
| 20260831231259 | 88 | 180 | 0.0 | 0.0 | 0.00 | 0.00 | 0.00 | 59 | 1037.7 |
| 20260831230754 | 89 | 180 | 0.0 | 0.0 | 0.00 | 0.00 | 0.00 | 60 | 1037.7 |
| 20260831230249 | 90 | 180 | 0.0 | 0.0 | 0.00 | 0.00 | 0.00 | 57 | 1037.7 |
| 20260831225748 | 92 | 180 | 0.0 | 0.0 | 0.00 | 0.00 | 0.00 | 55 | 1037.9 |
| 20260831225243 | 92 | 180 | 0.0 | 0.0 | 0.00 | 0.00 | 0.00 | 55 | 1037.9 |
| 20260831224738 | 93 | 180 | 0.0 | 0.0 | 0.00 | 0.00 | 0.00 | 54 | 1037.9 |
| 20260831224234 | 92 | 169 | 0.0 | 0.0 | 0.00 | 0.00 | 0.00 | 55 | 1038.0 |
| 20260831223729 | 93 | 172 | 1.0 | 2.0 | 0.00 | 0.00 | 0.00 | 50 | 1038.1 |
| 20260831223225 | 93 | 172 | 0.0 | 1.0 | 0.00 | 0.00 | 0.00 | 49 | 1038.1 |
| 20260831222721 | 92 | 157 | 1.0 | 2.0 | 0.00 | 0.00 | 0.00 | 51 | 1038.0 |
| 20260831222216 | 93 | 171 | 2.0 | 2.0 | 0.00 | 0.00 | 0.00 | 50 | 1037.9 |
| 20260831221712 | 94 | 180 | 0.0 | 1.0 | 0.00 | 0.00 | 0.00 | 52 | 1038.1 |
| 20260831221207 | 93 | 157 | 1.0 | 1.0 | 0.00 | 0.00 | 0.00 | 52 | 1038.0 |
| 20260831220702 | 92 | 254 | 0.0 | 1.0 | 0.00 | 0.00 | 0.00 | 53 | 1038.2 |
| 20260831220157 | 94 | 188 | 0.0 | 1.0 | 0.00 | 0.00 | 0.00 | 54 | 1038.0 |
| 20260831215652 | 95 | 166 | 1.0 | 2.0 | 0.00 | 0.00 | 0.00 | 51 | 1038.1 |
| 20260831215148 | 97 | 151 | 1.0 | 1.0 | 0.00 | 0.00 | 0.00 | 50 | 1037.9 |
| 20260831214645 | 96 | 180 | 0.0 | 1.0 | 0.00 | 0.00 | 0.00 | 52 | 1038.4 |
| 20260831214141 | 95 | 188 | 1.0 | 2.0 | 0.00 | 0.00 | 0.00 | 51 | 1038.4 |
| 20260831213637 | 95 | 151 | 0.0 | 2.0 | 0.00 | 0.00 | 0.00 | 50 | 1038.6 |
| 20260831213132 | 95 | 168 | 0.0 | 2.0 | 0.00 | 0.00 | 0.00 | 50 | 1038.2 |
| 20260831212629 | 96 | 166 | 1.0 | 3.0 | 0.00 | 0.00 | 0.00 | 47 | 1038.1 |
| 20260831212125 | 95 | 157 | 1.0 | 2.0 | 0.00 | 0.00 | 0.00 | 50 | 1038.1 |
| 20260831211624 | 95 | 61 | 3.0 | 3.0 | 0.00 | 0.00 | 0.00 | 50 | 1038.4 |
| 20260831211123 | 95 | 165 | 0.0 | 2.0 | 0.00 | 0.00 | 0.00 | 48 | 1038.2 |
| 20260831210619 | 95 | 156 | 2.0 | 2.0 | 0.00 | 0.00 | 0.00 | 49 | 1038.2 |
| 20260831210115 | 96 | 180 | 0.0 | 0.0 | 0.00 | 0.00 | 0.00 | 50 | 1038.1 |
| 20260831205614 | 95 | 154 | 1.0 | 2.0 | 0.00 | 0.00 | 0.00 | 50 | 1038.4 |
| 20260831205110 | 96 | 9 | 2.0 | 3.0 | 0.00 | 0.00 | 0.00 | 48 | 1038.1 |
| 20260831204605 | 95 | 123 | 0.0 | 2.0 | 0.00 | 0.00 | 0.00 | 51 | 1038.2 |
| 20260831204103 | 96 | 18 | 2.0 | 3.0 | 0.00 | 0.00 | 0.00 | 49 | 1038.1 |
| 20260831203603 | 95 | 337 | 0.0 | 3.0 | 0.00 | 0.00 | 0.00 | 50 | 1038.6 |
| 20260831203102 | 95 | 165 | 0.0 | 2.0 | 0.00 | 0.00 | 0.00 | 53 | 1038.5 |
| 20260831202601 | 95 | 160 | 1.0 | 2.0 | 0.00 | 0.00 | 0.00 | 52 | 1038.5 |
| 20260831202056 | 95 | 169 | 2.0 | 2.0 | 0.00 | 0.00 | 0.00 | 53 | 1038.7 |
| 20260831201555 | 96 | 157 | 2.0 | 2.0 | 0.00 | 0.00 | 0.00 | 50 | 1039.0 |
| 20260831201050 | 94 | 180 | 0.0 | 0.0 | 0.00 | 0.00 | 0.00 | 54 | 1039.0 |
| 20260831200546 | 91 | 187 | 1.0 | 2.0 | 0.00 | 0.00 | 0.00 | 57 | 1038.9 |
| 20260831200041 | 90 | 151 | 2.0 | 3.0 | 0.00 | 0.00 | 0.00 | 58 | 1038.9 |
| 20260831195536 | 89 | 180 | 2.0 | 2.0 | 0.00 | 0.00 | 0.00 | 60 | 1038.9 |
| 20260831195031 | 89 | 188 | 0.0 | 1.0 | 0.00 | 0.00 | 0.00 | 60 | 1039.1 |
| 20260831194526 | 90 | 190 | 2.0 | 2.0 | 0.00 | 0.00 | 0.00 | 61 | 1039.2 |
| 20260831194026 | 92 | 184 | 2.0 | 2.0 | 0.00 | 0.00 | 0.00 | 58 | 1039.1 |
| 20260831193522 | 94 | 151 | 2.0 | 3.0 | 0.00 | 0.00 | 0.00 | 56 | 1039.2 |
| 20260831193016 | 93 | 166 | 2.0 | 3.0 | 0.00 | 0.00 | 0.00 | 54 | 1039.3 |
| 20260831192506 | 93 | 346 | 0.0 | 2.0 | 0.00 | 0.00 | 0.00 | 54 | 1039.0 |
| 20260831192000 | 93 | 270 | 0.0 | 3.0 | 0.00 | 0.00 | 0.00 | 53 | 1039.5 |
| 20260831191457 | 93 | 328 | 0.0 | 2.0 | 0.00 | 0.00 | 0.00 | 54 | 1039.3 |
| 20260831190953 | 94 | 35 | 0.0 | 3.0 | 0.00 | 0.00 | 0.00 | 54 | 1039.5 |
| 20260831190448 | 94 | 145 | 0.0 | 1.0 | 0.00 | 0.00 | 0.00 | 54 | 1039.3 |
| 20260831185946 | 94 | 354 | 1.0 | 2.0 | 0.00 | 0.00 | 0.00 | 57 | 1039.5 |
| 20260831185442 | 91 | 2 | 3.0 | 4.0 | 0.00 | 0.00 | 0.00 | 58 | 1039.4 |
| 20260831184942 | 93 | 2 | 3.0 | 3.0 | 0.00 | 0.00 | 0.00 | 55 | 1039.4 |
| 20260831184436 | 92 | 187 | 0.0 | 2.0 | 0.00 | 0.00 | 0.00 | 58 | 1039.7 |
| 20260831183927 | 91 | 279 | 0.0 | 1.0 | 0.00 | 0.00 | 0.00 | 58 | 1039.7 |
| 20260831183426 | 91 | 105 | 2.0 | 2.0 | 0.00 | 0.00 | 0.00 | 59 | 1039.6 |
| 20260831182925 | 90 | 175 | 2.0 | 3.0 | 0.00 | 0.00 | 0.00 | 64 | 1039.8 |
| 20260831182421 | 89 | 96 | 2.0 | 3.0 | 0.00 | 0.00 | 0.00 | 61 | 1039.9 |
| 20260831181916 | 89 | 36 | 3.0 | 3.0 | 0.00 | 0.00 | 0.00 | 63 | 1039.8 |
| 20260831181412 | 88 | 157 | 3.0 | 3.0 | 0.00 | 0.00 | 0.00 | 64 | 1039.9 |
| 20260831180906 | 88 | 157 | 2.0 | 3.0 | 0.00 | 0.00 | 0.00 | 65 | 1040.0 |
| 20260831180400 | 88 | 187 | 0.0 | 2.0 | 0.00 | 0.00 | 0.00 | 63 | 1040.0 |
| 20260831175859 | 87 | 52 | 3.0 | 3.0 | 0.00 | 0.00 | 0.00 | 62 | 1040.1 |
| 20260831175355 | 88 | 139 | 0.0 | 2.0 | 0.00 | 0.00 | 0.00 | 64 | 1040.6 |
| 20260831174851 | 88 | 123 | 0.0 | 2.0 | 0.00 | 0.00 | 0.00 | 67 | 1040.5 |
| 20260831174347 | 87 | 26 | 2.0 | 3.0 | 0.00 | 0.00 | 0.00 | 66 | 1040.5 |
| 20260831173846 | 86 | 29 | 1.0 | 3.0 | 0.00 | 0.00 | 0.00 | 65 | 1040.6 |
| 20260831173340 | 86 | 90 | 0.0 | 3.0 | 0.00 | 0.00 | 0.00 | 68 | 1040.5 |
| 20260831172835 | 83 | 166 | 1.0 | 2.0 | 0.00 | 0.00 | 0.00 | 74 | 1040.6 |
| 20260831172331 | 82 | 180 | 0.0 | 2.0 | 0.00 | 0.00 | 0.00 | 75 | 1040.5 |
| 20260831171830 | 83 | 176 | 2.0 | 3.0 | 0.00 | 0.00 | 0.00 | 74 | 1040.7 |
| 20260831171327 | 84 | 195 | 0.0 | 0.0 | 0.00 | 0.00 | 0.00 | 70 | 1040.3 |
| 20260831170823 | 85 | 8 | 0.0 | 2.0 | 0.00 | 0.00 | 0.00 | 69 | 1040.6 |
| 20260831170319 | 84 | 209 | 0.0 | 1.0 | 0.00 | 0.00 | 0.00 | 70 | 1040.7 |
| 20260831165816 | 84 | 165 | 0.0 | 3.0 | 0.00 | 0.00 | 0.00 | 72 | 1040.8 |
| 20260831165312 | 84 | 187 | 0.0 | 0.0 | 0.00 | 0.00 | 0.00 | 71 | 1040.6 |
| 20260831164808 | 83 | 180 | 0.0 | 0.0 | 0.00 | 0.00 | 0.00 | 73 | 1040.5 |
| 20260831164304 | 83 | 82 | 0.0 | 1.0 | 0.00 | 0.00 | 0.00 | 74 | 1040.6 |
| 20260831163759 | 82 | 172 | 0.0 | 0.0 | 0.00 | 0.00 | 0.00 | 75 | 1040.8 |
| 20260831163255 | 82 | 180 | 0.0 | 2.0 | 0.00 | 0.00 | 0.00 | 74 | 1040.9 |
| 20260831162753 | 83 | 151 | 0.0 | 2.0 | 0.00 | 0.00 | 0.00 | 74 | 1041.0 |
| 20260831162248 | 83 | 180 | 0.0 | 3.0 | 0.00 | 0.00 | 0.00 | 73 | 1040.9 |
| 20260831161742 | 83 | 187 | 0.0 | 2.0 | 0.00 | 0.00 | 0.00 | 73 | 1040.8 |
| 20260831161239 | 82 | 192 | 1.0 | 2.0 | 0.00 | 0.00 | 0.00 | 74 | 1041.0 |
| 20260831160738 | 83 | 21 | 0.0 | 4.0 | 0.00 | 0.00 | 0.00 | 73 | 1040.9 |
| 20260831160233 | 82 | 151 | 0.0 | 3.0 | 0.00 | 0.00 | 0.00 | 74 | 1040.9 |
| 20260831155733 | 83 | 159 | 2.0 | 3.0 | 0.00 | 0.00 | 0.00 | 76 | 1040.7 |
| 20260831155228 | 82 | 172 | 0.0 | 1.0 | 0.00 | 0.00 | 0.00 | 79 | 1041.0 |
| 20260831154724 | 81 | 188 | 0.0 | 1.0 | 0.00 | 0.00 | 0.00 | 79 | 1041.0 |
| 20260831154220 | 82 | 353 | 0.0 | 3.0 | 0.00 | 0.00 | 0.00 | 79 | 1041.1 |
| 20260831153719 | 81 | 123 | 0.0 | 3.0 | 0.00 | 0.00 | 0.00 | 81 | 1040.9 |
| 20260831153215 | 80 | 165 | 0.0 | 1.0 | 0.00 | 0.00 | 0.00 | 81 | 1041.1 |
| 20260831152711 | 80 | 180 | 0.0 | 2.0 | 0.00 | 0.00 | 0.00 | 83 | 1041.1 |
| 20260831152206 | 79 | 166 | 0.0 | 0.0 | 0.00 | 0.00 | 0.00 | 83 | 1041.0 |
| 20260831151700 | 80 | 166 | 0.0 | 0.0 | 0.00 | 0.00 | 0.00 | 83 | 1041.1 |
| 20260831151155 | 80 | 166 | 0.0 | 1.0 | 0.00 | 0.00 | 0.00 | 81 | 1041.0 |
| 20260831150650 | 80 | 75 | 0.0 | 3.0 | 0.00 | 0.00 | 0.00 | 81 | 1040.9 |
| 20260831150145 | 80 | 74 | 0.0 | 0.0 | 0.00 | 0.00 | 0.00 | 81 | 1041.2 |
| 20260831145644 | 79 | 66 | 0.0 | 1.0 | 0.00 | 0.00 | 0.00 | 81 | 1041.0 |
| 20260831145141 | 79 | 75 | 0.0 | 0.0 | 0.00 | 0.00 | 0.00 | 82 | 1041.0 |
| 20260831144636 | 78 | 35 | 1.0 | 2.0 | 0.00 | 0.00 | 0.00 | 82 | 1040.9 |
| 20260831144132 | 78 | 117 | 0.0 | 1.0 | 0.00 | 0.00 | 0.00 | 85 | 1041.0 |
| 20260831143631 | 78 | 15 | 0.0 | 0.0 | 0.00 | 0.00 | 0.00 | 84 | 1040.9 |
| 20260831143127 | 79 | 15 | 0.0 | 0.0 | 0.00 | 0.00 | 0.00 | 83 | 1040.9 |
| 20260831142624 | 79 | 15 | 0.0 | 0.0 | 0.00 | 0.00 | 0.00 | 82 | 1040.9 |
| 20260831142119 | 79 | 90 | 0.0 | 0.0 | 0.00 | 0.00 | 0.00 | 82 | 1041.0 |
| 20260831141618 | 78 | 4 | 2.0 | 2.0 | 0.00 | 0.00 | 0.00 | 83 | 1040.8 |
| 20260831141113 | 78 | 0 | 0.0 | 2.0 | 0.00 | 0.00 | 0.00 | 84 | 1040.8 |
| 20260831140612 | 77 | 0 | 0.0 | 0.0 | 0.00 | 0.00 | 0.00 | 85 | 1041.0 |
| 20260831140107 | 77 | 157 | 0.0 | 0.0 | 0.00 | 0.00 | 0.00 | 86 | 1040.8 |
| 20260831135605 | 77 | 0 | 0.0 | 0.0 | 0.00 | 0.00 | 0.00 | 85 | 1041.0 |
| 20260831135101 | 77 | 7 | 0.0 | 1.0 | 0.00 | 0.00 | 0.00 | 86 | 1040.9 |
| 20260831134556 | 77 | 0 | 0.0 | 2.0 | 0.00 | 0.00 | 0.00 | 86 | 1040.9 |
| 20260831134056 | 76 | 8 | 0.0 | 0.0 | 0.00 | 0.00 | 0.00 | 88 | 1040.7 |
| 20260831133550 | 76 | 354 | 0.0 | 0.0 | 0.00 | 0.00 | 0.00 | 88 | 1040.9 |
| 20260831133045 | 75 | 354 | 0.0 | 0.0 | 0.00 | 0.00 | 0.00 | 88 | 1040.7 |
| 20260831132542 | 76 | 354 | 0.0 | 1.0 | 0.00 | 0.00 | 0.00 | 88 | 1040.8 |
| 20260831132040 | 75 | 346 | 0.0 | 2.0 | 0.00 | 0.00 | 0.00 | 88 | 1040.6 |
| 20260831131540 | 75 | 353 | 1.0 | 2.0 | 0.00 | 0.00 | 0.00 | 88 | 1040.6 |
| 20260831131037 | 75 | 0 | 0.0 | 2.0 | 0.00 | 0.00 | 0.00 | 89 | 1040.7 |
| 20260831130532 | 75 | 0 | 0.0 | 2.0 | 0.00 | 0.00 | 0.00 | 89 | 1040.7 |
| 20260831130027 | 74 | 352 | 0.0 | 2.0 | 0.00 | 0.00 | 0.00 | 90 | 1040.5 |
| 20260831125521 | 74 | 345 | 0.0 | 0.0 | 0.00 | 0.00 | 0.00 | 92 | 1040.5 |
| 20260831125016 | 73 | 349 | 2.0 | 2.0 | 0.00 | 0.00 | 0.00 | 93 | 1040.2 |
| 20260831124513 | 72 | 0 | 0.0 | 0.0 | 0.00 | 0.00 | 0.00 | 94 | 1040.5 |
| 20260831124009 | 72 | 0 | 0.0 | 0.0 | 0.00 | 0.00 | 0.00 | 94 | 1040.7 |
| 20260831123507 | 72 | 352 | 0.0 | 1.0 | 0.00 | 0.00 | 0.00 | 94 | 1040.2 |
| 20260831123002 | 72 | 348 | 1.0 | 2.0 | 0.00 | 0.00 | 0.00 | 94 | 1040.3 |
| 20260831122457 | 72 | 0 | 1.0 | 2.0 | 0.00 | 0.00 | 0.00 | 94 | 1040.5 |
| 20260831121952 | 72 | 0 | 0.0 | 2.0 | 0.00 | 0.00 | 0.00 | 94 | 1040.3 |
| 20260831121447 | 72 | 355 | 1.0 | 2.0 | 0.00 | 0.00 | 0.00 | 93 | 1040.2 |
| 20260831120943 | 71 | 0 | 1.0 | 1.0 | 0.00 | 0.00 | 0.00 | 94 | 1040.3 |
| 20260831120442 | 71 | 0 | 0.0 | 1.0 | 0.00 | 0.00 | 0.00 | 95 | 1040.3 |
| 20260831115937 | 70 | 0 | 0.0 | 2.0 | 0.00 | 0.00 | 0.00 | 96 | 1040.2 |
| 20260831115434 | 70 | 0 | 3.0 | 3.0 | 0.00 | 0.00 | 0.00 | 95 | 1040.3 |
| 20260831114933 | 70 | 353 | 0.0 | 2.0 | 0.00 | 0.00 | 0.00 | 96 | 1040.2 |
| 20260831114432 | 70 | 0 | 0.0 | 2.0 | 0.00 | 0.00 | 0.00 | 96 | 1040.2 |
| 20260831113928 | 70 | 157 | 0.0 | 0.0 | 0.00 | 0.00 | 0.00 | 96 | 1040.0 |
| 20260831113427 | 70 | 165 | 0.0 | 2.0 | 0.00 | 0.00 | 0.00 | 96 | 1040.0 |
| 20260831112923 | 70 | 180 | 0.0 | 1.0 | 0.00 | 0.00 | 0.00 | 95 | 1039.8 |
| 20260831112422 | 70 | 0 | 0.0 | 0.0 | 0.00 | 0.00 | 0.00 | 95 | 1039.7 |
| 20260831111918 | 70 | 352 | 0.0 | 0.0 | 0.00 | 0.00 | 0.00 | 95 | 1039.6 |
| 20260831111414 | 70 | 352 | 0.0 | 0.0 | 0.00 | 0.00 | 0.00 | 95 | 1039.5 |
| 20260831110909 | 70 | 0 | 0.0 | 1.0 | 0.00 | 0.00 | 0.00 | 96 | 1039.4 |
| 20260831110409 | 70 | 0 | 0.0 | 1.0 | 0.00 | 0.00 | 0.00 | 96 | 1039.5 |
| 20260831105908 | 70 | 0 | 0.0 | 1.0 | 0.00 | 0.00 | 0.00 | 95 | 1039.4 |
| 20260831105404 | 70 | 0 | 0.0 | 2.0 | 0.00 | 0.00 | 0.00 | 95 | 1039.5 |
| 20260831104859 | 70 | 353 | 1.0 | 2.0 | 0.00 | 0.00 | 0.00 | 95 | 1039.0 |
| 20260831104355 | 70 | 8 | 0.0 | 0.0 | 0.00 | 0.00 | 0.00 | 96 | 1039.1 |
| 20260831103850 | 69 | 0 | 0.0 | 1.0 | 0.00 | 0.00 | 0.00 | 97 | 1039.4 |
| 20260831103345 | 69 | 355 | 1.0 | 3.0 | 0.00 | 0.00 | 0.00 | 97 | 1039.1 |
| 20260831102840 | 70 | 350 | 3.0 | 3.0 | 0.00 | 0.00 | 0.00 | 97 | 1039.0 |
| 20260831102335 | 70 | 354 | 1.0 | 2.0 | 0.00 | 0.00 | 0.00 | 97 | 1039.2 |
| 20260831101831 | 70 | 345 | 1.0 | 1.0 | 0.00 | 0.00 | 0.00 | 97 | 1039.2 |
| 20260831101326 | 70 | 345 | 1.0 | 1.0 | 0.00 | 0.00 | 0.00 | 97 | 1039.2 |
| 20260831100822 | 70 | 353 | 0.0 | 0.0 | 0.00 | 0.00 | 0.00 | 97 | 1039.0 |
| 20260831100318 | 70 | 353 | 0.0 | 1.0 | 0.00 | 0.00 | 0.00 | 97 | 1039.0 |
| 20260831095817 | 69 | 350 | 2.0 | 3.0 | 0.00 | 0.00 | 0.00 | 97 | 1038.8 |
| 20260831095312 | 70 | 354 | 0.0 | 2.0 | 0.00 | 0.00 | 0.00 | 97 | 1038.8 |
| 20260831094807 | 70 | 352 | 0.0 | 1.0 | 0.00 | 0.00 | 0.00 | 97 | 1039.2 |
| 20260831094303 | 70 | 4 | 2.0 | 2.0 | 0.00 | 0.00 | 0.00 | 97 | 1038.8 |
| 20260831093758 | 70 | 0 | 1.0 | 2.0 | 0.00 | 0.00 | 0.00 | 96 | 1039.0 |
| 20260831093258 | 71 | 0 | 2.0 | 2.0 | 0.00 | 0.00 | 0.00 | 96 | 1038.8 |
| 20260831092755 | 71 | 14 | 0.0 | 2.0 | 0.00 | 0.00 | 0.00 | 95 | 1038.8 |
| 20260831092250 | 71 | 355 | 0.0 | 2.0 | 0.00 | 0.00 | 0.00 | 95 | 1039.1 |
| 20260831091750 | 71 | 353 | 1.0 | 2.0 | 0.00 | 0.00 | 0.00 | 94 | 1038.9 |
| 20260831091246 | 71 | 188 | 0.0 | 0.0 | 0.00 | 0.00 | 0.00 | 94 | 1038.9 |
| 20260831090741 | 72 | 151 | 1.0 | 1.0 | 0.00 | 0.00 | 0.00 | 93 | 1038.8 |
| 20260831090237 | 72 | 187 | 0.0 | 1.0 | 0.00 | 0.00 | 0.00 | 92 | 1038.9 |
| 20260831085733 | 73 | 0 | 0.0 | 0.0 | 0.00 | 0.00 | 0.00 | 92 | 1038.6 |
| 20260831085227 | 73 | 0 | 0.0 | 0.0 | 0.00 | 0.00 | 0.00 | 92 | 1038.6 |
| 20260831084722 | 73 | 0 | 0.0 | 0.0 | 0.00 | 0.00 | 0.00 | 92 | 1038.5 |
| 20260831084219 | 72 | 0 | 0.0 | 0.0 | 0.00 | 0.00 | 0.00 | 92 | 1038.5 |
| 20260831083715 | 72 | 352 | 0.0 | 0.0 | 0.00 | 0.00 | 0.00 | 93 | 1038.6 |
| 20260831083210 | 72 | 345 | 0.0 | 2.0 | 0.00 | 0.00 | 0.00 | 93 | 1038.7 |
| 20260831082708 | 72 | 353 | 0.0 | 0.0 | 0.00 | 0.00 | 0.00 | 94 | 1038.6 |
| 20260831082204 | 72 | 0 | 1.0 | 1.0 | 0.00 | 0.00 | 0.00 | 93 | 1038.5 |
| 20260831081659 | 72 | 0 | 0.0 | 2.0 | 0.00 | 0.00 | 0.00 | 93 | 1038.7 |
| 20260831081155 | 73 | 334 | 1.0 | 1.0 | 0.00 | 0.00 | 0.00 | 92 | 1038.8 |
| 20260831080650 | 73 | 337 | 0.0 | 1.0 | 0.00 | 0.00 | 0.00 | 92 | 1038.8 |
| 20260831080144 | 73 | 334 | 0.0 | 2.0 | 0.00 | 0.00 | 0.00 | 91 | 1038.6 |
| 20260831075641 | 73 | 352 | 0.0 | 0.0 | 0.00 | 0.00 | 0.00 | 91 | 1038.7 |
| 20260831075136 | 72 | 352 | 0.0 | 0.0 | 0.00 | 0.00 | 0.00 | 93 | 1038.7 |
| 20260831074635 | 72 | 352 | 0.0 | 1.0 | 0.00 | 0.00 | 0.00 | 93 | 1038.8 |
| 20260831074130 | 72 | 0 | 1.0 | 2.0 | 0.00 | 0.00 | 0.00 | 93 | 1038.9 |
| 20260831073625 | 73 | 337 | 1.0 | 1.0 | 0.00 | 0.00 | 0.00 | 92 | 1038.9 |
| 20260831073124 | 73 | 353 | 0.0 | 2.0 | 0.00 | 0.00 | 0.00 | 92 | 1039.0 |
| 20260831072620 | 73 | 345 | 0.0 | 1.0 | 0.00 | 0.00 | 0.00 | 91 | 1038.9 |
| 20260831072116 | 73 | 346 | 0.0 | 0.0 | 0.00 | 0.00 | 0.00 | 91 | 1038.7 |
| 20260831071614 | 73 | 354 | 0.0 | 1.0 | 0.00 | 0.00 | 0.00 | 91 | 1038.8 |
| 20260831071110 | 72 | 345 | 0.0 | 1.0 | 0.00 | 0.00 | 0.00 | 94 | 1038.8 |
| 20260831070609 | 72 | 353 | 0.0 | 2.0 | 0.00 | 0.00 | 0.00 | 94 | 1038.8 |
| 20260831070104 | 73 | 343 | 2.0 | 3.0 | 0.00 | 0.00 | 0.00 | 92 | 1038.7 |
| 20260831065602 | 73 | 165 | 0.0 | 0.0 | 0.00 | 0.00 | 0.00 | 90 | 1038.6 |
| 20260831065056 | 73 | 165 | 0.0 | 1.0 | 0.00 | 0.00 | 0.00 | 90 | 1038.8 |
| 20260831064551 | 74 | 180 | 0.0 | 0.0 | 0.00 | 0.00 | 0.00 | 89 | 1039.0 |
| 20260831064047 | 75 | 180 | 0.0 | 0.0 | 0.00 | 0.00 | 0.00 | 88 | 1038.8 |
| 20260831063543 | 76 | 174 | 0.0 | 2.0 | 0.00 | 0.00 | 0.00 | 86 | 1038.8 |
| 20260831063037 | 76 | 0 | 0.0 | 0.0 | 0.00 | 0.00 | 0.00 | 85 | 1038.9 |
| 20260831062532 | 75 | 0 | 0.0 | 0.0 | 0.00 | 0.00 | 0.00 | 86 | 1039.0 |
| 20260831062032 | 75 | 355 | 2.0 | 2.0 | 0.00 | 0.00 | 0.00 | 88 | 1038.8 |
| 20260831061529 | 75 | 354 | 1.0 | 1.0 | 0.00 | 0.00 | 0.00 | 86 | 1038.7 |
| 20260831061026 | 74 | 345 | 0.0 | 0.0 | 0.00 | 0.00 | 0.00 | 88 | 1038.8 |
| 20260831060526 | 74 | 345 | 0.0 | 1.0 | 0.00 | 0.00 | 0.00 | 89 | 1039.1 |
| 20260831060022 | 75 | 0 | 0.0 | 1.0 | 0.00 | 0.00 | 0.00 | 88 | 1039.0 |
| 20260831055515 | 75 | 352 | 0.0 | 1.0 | 0.00 | 0.00 | 0.00 | 88 | 1039.0 |
| 20260831055011 | 75 | 0 | 0.0 | 0.0 | 0.00 | 0.00 | 0.00 | 87 | 1039.0 |
| 20260831054505 | 75 | 0 | 0.0 | 0.0 | 0.00 | 0.00 | 0.00 | 87 | 1039.0 |
| 20260831054004 | 75 | 0 | 0.0 | 1.0 | 0.00 | 0.00 | 0.00 | 87 | 1039.1 |
| 20260831053502 | 75 | 0 | 0.0 | 1.0 | 0.00 | 0.00 | 0.00 | 87 | 1039.2 |
| 20260831052952 | 75 | 355 | 0.0 | 0.0 | 0.00 | 0.00 | 0.00 | 86 | 1039.1 |
| 20260831052451 | 75 | 355 | 0.0 | 0.0 | 0.00 | 0.00 | 0.00 | 87 | 1039.2 |
| 20260831051950 | 75 | 355 | 0.0 | 1.0 | 0.00 | 0.00 | 0.00 | 88 | 1039.2 |
| 20260831051449 | 75 | 0 | 0.0 | 1.0 | 0.00 | 0.00 | 0.00 | 87 | 1039.1 |
| 20260831050943 | 76 | 160 | 0.0 | 0.0 | 0.00 | 0.00 | 0.00 | 86 | 1039.1 |
| 20260831050443 | 76 | 160 | 0.0 | 0.0 | 0.00 | 0.00 | 0.00 | 85 | 1038.7 |
| 20260831045942 | 76 | 160 | 0.0 | 0.0 | 0.00 | 0.00 | 0.00 | 86 | 1039.0 |
| 20260831045441 | 75 | 160 | 0.0 | 0.0 | 0.00 | 0.00 | 0.00 | 86 | 1039.0 |
| 20260831044936 | 75 | 160 | 0.0 | 0.0 | 0.00 | 0.00 | 0.00 | 87 | 1038.9 |
| 20260831044431 | 76 | 165 | 0.0 | 0.0 | 0.00 | 0.00 | 0.00 | 86 | 1038.9 |